Location: Gad�tanya
(48.0500°N, 20.8500°E)
Time: 11:12:33
(UTC+00:00)

Cosmos 1842 Rocket - Pass Details

Date: 05 July 2020
Orbit: 605 x 634 km, 82.5° (Epoch: 14 August)

Event Time Altitude Azimuth Distance (km) Brightness Sun altitude
Rises 20:02:26 0° 356° (N) 2,890 8.0 -10.8°
Reaches altitude 10° 20:04:47 10° 4° (N) 1,977 6.9 -11.0°
Maximum altitude 20:08:55 40° 75° (ENE) 901 4.2 -11.5°
Enters shadow 20:11:52 17° 138° (SE) 1,545 4.9 -11.7°
